Lapse_Rate
2.1 1.2 1.3 1.3 1.2 1.0 0.9 1.1 1.5 2.0 3.1 3.6 3.5 3.3 3.6 3.7 3.8 3.9 3.9 4.1 4.4 4.6 4.8 4.8 4.8 4.9 4.7 4.4 4.0 3.9 3.7 3.7 3.7 4.0 4.3 4.7 4.9 4.7 4.7 4.8 5.2 5.4 4.9
1.6 1.5 1.4 1.4 1.5 1.5 1.4 1.4 1.5 1.9 2.5 3.1 3.4 3.4 3.6 3.6 3.4 3.8 3.9 4.1 4.4 4.6 4.7 4.7 4.7 4.7 4.6 4.2 4.0 3.9 3.9 3.9 3.7 4.2 5.2 5.2 5.4 5.1 4.8 5.2 5.7 4.9 4.9
1.7 1.5 1.7 1.6 2.0 1.9 1.9 1.8 1.8 2.1 2.4 3.0 3.3 3.4 3.6 3.6 3.4 3.4 3.8 4.1 4.3 4.5 4.6 4.8 4.9 4.7 4.5 4.3 4.2 4.0 4.0 4.1 3.8 4.6 5.2 5.1 5.8 5.3 5.1 5.1 5.3 5.3 5.1
2.0 1.8 1.5 1.8 2.3 2.5 2.3 2.2 2.1 2.2 2.2 2.5 3.0 3.2 3.5 3.5 3.3 3.4 3.6 3.9 4.2 4.5 4.8 4.9 5.0 4.8 4.4 4.2 4.2 4.2 4.1 4.1 3.9 4.4 5.3 6.1 6.9 5.7 5.3 5.4 5.0 5.3 5.3
3.0 2.3 1.7 2.1 2.7 2.6 2.4 2.4 2.4 2.4 2.6 2.5 3.0 3.2 3.3 3.4 3.3 3.4 3.6 3.8 4.1 4.4 4.6 5.0 5.3 4.6 4.4 4.2 4.1 4.2 4.1 4.0 3.8 4.2 5.4 6.3 5.9 6.2 5.1 5.3 5.3 5.2 5.3
2.4 2.0 1.6 2.1 2.5 2.5 2.4 2.5 2.4 2.6 2.7 2.7 3.0 3.2 3.4 3.5 3.6 3.6 3.8 4.0 4.3 4.5 4.6 4.7 4.8 4.4 4.2 4.1 4.0 3.9 4.0 3.9 3.4 3.9 5.1 7.2 7.2 6.6 5.6 5.1 5.2 5.3 5.1
1.8 1.6 1.7 2.0 2.3 2.3 2.4 2.5 2.6 2.8 2.8 2.9 3.3 3.4 3.7 3.9 3.9 3.9 4.0 4.0 4.1 4.2 4.1 4.2 4.2 4.3 4.3 4.5 4.4 4.2 4.0 3.8 3.4 3.3 4.7 6.1 7.0 6.5 6.1 5.3 5.2 5.3 5.3
2.4 1.7 2.1 2.2 2.2 2.1 2.1 2.5 2.7 2.8 2.9 3.2 3.5 3.6 3.7 3.7 3.6 3.6 3.5 3.6 3.6 3.7 3.8 3.9 4.0 4.2 4.4 4.5 4.8 4.7 4.4 4.3 4.2 3.2 3.8 5.8 7.1 7.4 6.7 5.8 5.6 5.2 5.4
2.8 2.1 1.9 2.3 1.8 1.1 1.7 2.1 2.4 2.6 2.5 2.5 2.8 3.0 3.2 3.4 3.4 3.1 3.0 3.1 3.2 3.4 3.5 3.6 3.7 4.0 4.4 4.6 4.6 4.7 5.0 4.8 4.1 3.7 4.2 4.8 6.2 7.8 8.1 6.9 6.2 5.4 5.2
3.1 2.3 1.4 1.7 1.7 1.3 1.4 2.2 2.9 3.0 3.4 2.6 2.6 2.9 3.3 4.0 3.6 3.3 2.6 2.8 2.9 3.2 3.6 4.0 4.3 4.8 5.2 5.2 5.7 5.8 5.1 4.4 4.2 4.0 4.5 5.0 6.0 7.7 8.0 7.5 7.0 6.1 5.1
4.0 2.3 1.7 1.8 1.7 1.5 1.6 2.2 2.8 3.0 3.6 3.7 3.5 3.9 4.5 5.0 4.6 3.8 3.4 3.9 4.3 4.8 5.3 5.5 5.8 5.6 5.8 5.7 6.2 4.8 4.7 5.0 5.0 5.0 5.4 5.8 6.0 7.8 7.9 7.7 7.0 6.8 5.8
4.4 4.3 3.3 2.0 1.5 2.0 2.7 2.1 2.6 3.0 3.6 4.1 4.6 5.3 5.9 6.2 6.0 5.4 5.2 5.6 5.7 5.4 5.7 5.8 5.7 5.9 5.7 5.5 5.8 6.0 5.6 5.7 6.9 6.2 5.1 5.8 6.7 6.9 7.0 7.5 7.5 7.1 6.7
5.5 5.4 4.7 3.3 2.8 3.1 2.9 3.2 4.0 4.1 4.2 5.1 5.8 5.9 6.7 6.7 6.2 5.3 5.5 4.6 4.9 4.3 4.2 4.6 4.3 4.2 4.8 5.1 5.1 5.0 5.2 5.3 5.4 5.2 4.7 5.8 6.1 5.8 5.3 5.9 6.1 6.3 6.4
5.1 5.3 5.2 5.0 5.2 4.3 4.5 3.7 4.5 3.2 2.6 3.5 4.3 5.5 6.0 5.6 4.8 4.7 4.6 4.2 3.2 3.2 2.9 2.7 2.7 3.6 3.8 4.3 4.5 4.4 4.8 4.3 4.4 4.5 4.5 5.2 5.8 5.7 5.9 5.5 5.8 5.9 6.4
4.1 4.2 4.9 5.3 5.2 6.0 3.7 3.4 2.8 0.5 0.7 1.5 2.8 3.2 4.2 3.0 2.1 3.3 2.7 2.5 2.1 2.8 1.9 1.1 1.3 1.2 1.7 2.2 2.7 3.0 3.0 3.7 4.5 4.7 5.2 4.0 4.1 4.5 4.9 4.9 5.7 5.6 5.5
3.4 3.3 4.3 5.7 5.3 5.0 3.4 2.6 1.4 0.4 -1.3 -0.0 0.7 1.5 2.9 2.5 1.8 1.2 0.5 0.7 1.2 1.6 1.5 1.2 0.4 0.0 0.1 1.3 1.6 2.4 2.6 3.0 3.4 4.2 4.9 2.6 2.9 3.5 4.6 5.4 5.8 5.7 5.4
3.7 4.0 4.3 5.6 4.8 3.8 2.7 2.2 1.0 0.3 -0.8 -0.9 -0.4 0.8 2.0 2.3 1.8 0.7 -0.3 -0.3 0.6 1.4 1.5 1.1 0.8 0.7 -0.2 0.6 0.5 1.1 2.1 3.1 3.7 4.8 3.4 2.6 2.2 2.6 3.2 4.1 4.6 5.2 5.6
4.4 3.7 4.6 5.6 3.6 3.0 1.7 1.6 1.4 -0.2 -0.8 -1.2 -0.5 0.4 1.5 2.0 1.5 0.4 -0.6 -0.3 1.1 0.9 0.4 -0.9 -1.2 -0.8 -1.3 -1.2 -1.2 -0.7 -0.2 1.7 3.6 4.6 4.4 3.7 2.7 2.4 3.0 3.3 3.5 4.2 4.3
3.6 3.7 3.3 3.4 3.2 2.5 1.9 1.4 1.1 0.1 -0.4 -0.8 -0.4 0.1 1.2 1.6 1.4 0.7 0.3 0.4 1.1 -0.3 -1.2 -1.3 -1.0 -1.0 -1.3 -1.3 -0.4 -0.1 0.2 1.3 3.6 5.7 4.7 4.4 4.5 4.0 3.3 3.5 3.6 3.9 4.0
3.1 2.6 2.7 2.9 2.6 2.7 2.2 2.1 1.5 0.9 -0.4 -0.3 -0.4 0.0 1.0 1.2 1.2 0.9 0.3 -0.2 0.3 -1.6 -1.6 -1.3 -0.6 -0.6 -0.4 -0.8 1.2 1.7 0.6 2.5 4.4 4.2 5.0 4.9 4.6 4.8 4.9 4.6 4.6 5.0 5.2
3.2 2.5 3.0 1.9 2.3 3.7 3.5 2.9 3.0 1.5 0.7 -0.8 -0.1 0.5 0.8 1.2 0.7 0.4 -0.3 -0.7 -0.1 -1.1 -1.1 -0.7 -0.4 0.1 -0.5 -1.0 -0.9 1.0 2.9 3.0 3.5 4.7 4.8 4.9 5.0 5.6 5.9 6.0 6.1 5.8 6.1
3.5 2.9 2.5 2.6 2.5 3.3 3.4 3.5 2.6 2.2 1.1 0.8 0.2 0.3 1.0 0.9 1.0 0.2 -0.3 -0.9 -0.9 -1.2 -1.1 -1.0 -0.5 0.2 0.2 -0.7 -0.2 0.3 3.0 3.8 3.1 5.4 4.5 5.3 4.2 5.7 5.5 5.9 6.1 5.7 5.0
3.0 2.8 2.8 3.2 3.3 3.2 4.1 3.4 3.0 3.3 2.4 1.2 -0.0 -0.7 0.0 0.9 1.1 0.6 0.4 -0.2 -1.1 -1.3 -1.2 -1.2 -0.9 0.0 0.5 0.4 0.2 0.6 2.4 3.1 2.7 4.1 4.3 4.5 4.5 4.3 4.5 5.4 5.6 5.6 4.9
3.2 3.2 3.2 3.5 3.7 3.7 3.7 4.0 4.5 3.2 2.1 1.4 0.1 0.1 -0.2 1.4 0.9 0.8 0.6 -0.3 -0.7 -0.9 -1.2 -0.4 -0.5 -0.6 0.1 0.4 1.4 2.5 2.2 3.2 3.6 2.8 3.4 3.5 3.6 4.9 4.6 5.2 4.7 5.1 4.1
3.4 3.5 3.8 3.9 4.5 4.2 4.4 4.5 3.6 2.6 2.5 1.5 1.8 1.3 0.8 0.7 1.2 0.6 0.0 -0.6 -1.3 -1.3 -1.3 -0.7 -0.5 -0.4 -0.2 0.2 0.6 1.6 3.0 3.4 3.3 4.1 4.1 3.3 2.9 4.2 6.0 4.9 4.5 4.8 4.1
5.1 4.7 4.8 4.9 5.1 4.9 5.2 4.2 3.5 3.0 2.8 3.2 3.1 2.1 0.9 0.6 -0.1 0.0 -0.3 -0.9 -0.6 -0.9 -0.4 -0.3 0.0 0.5 0.1 0.4 0.9 1.3 2.9 3.5 3.6 3.8 4.0 3.4 2.9 3.6 4.3 5.0 4.8 5.2 4.6
Wind_Speed
7 12 21 20 19 20 19 18 19 18 16 14 14 14 14 15 15 14 14 13 12 12 11 10 10 10 10 11 11 11 11 10 11 9 9 10 11 12 10 8 9 11 12
14 13 20 20 19 19 19 21 19 18 18 17 15 14 14 13 15 12 12 11 10 9 9 8 8 8 8 8 8 8 7 7 8 5 3 7 7 8 9 5 4 12 12
15 15 17 20 18 19 19 19 18 16 17 17 15 15 14 12 13 12 10 9 8 8 8 6 6 6 6 6 6 6 6 6 6 5 5 1 5 8 6 11 15 13 12
16 15 15 20 19 19 19 19 19 17 17 17 15 15 14 12 12 11 9 8 8 7 6 5 4 4 4 4 5 6 7 8 7 5 5 6 7 9 9 9 12 12 11
14 17 17 20 19 19 19 19 18 19 16 19 15 15 14 12 11 10 8 7 7 6 5 3 1 4 3 3 4 6 8 9 10 9 7 13 17 12 14 11 11 10 10
14 17 17 19 19 19 18 18 19 18 17 18 16 15 13 12 11 10 8 7 6 5 4 4 4 3 2 3 4 5 8 11 10 12 13 8 11 16 16 15 11 11 10
13 15 13 17 18 18 18 18 18 17 16 16 14 14 12 11 10 8 6 5 4 4 4 2 3 3 3 4 5 6 7 11 13 12 13 13 8 20 16 14 13 9 9
15 14 14 13 15 17 17 17 17 15 15 14 12 12 11 11 11 10 8 7 6 5 3 3 3 3 4 6 8 10 9 10 11 14 13 9 11 18 15 14 12 11 8
14 12 12 12 14 17 18 18 16 16 15 15 14 14 13 13 12 13 11 10 9 7 6 5 4 4 5 7 9 12 14 13 12 12 14 11 5 15 11 14 13 12 11
13 11 9 12 11 12 14 17 16 16 14 15 15 14 12 11 12 13 10 8 9 7 6 6 5 5 7 9 12 16 12 12 12 13 14 17 12 13 13 14 14 13 12
10 12 10 9 10 11 12 14 16 17 15 14 12 12 10 11 12 9 8 8 6 4 3 6 9 10 12 11 12 11 4 6 10 11 13 15 14 15 12 11 12 12 11
13 12 10 10 9 10 10 12 13 13 15 13 12 9 7 8 11 8 7 6 6 12 11 11 17 15 15 14 16 13 9 11 12 9 10 13 14 11 7 6 7 7 7
14 10 11 11 13 9 8 9 9 9 10 12 8 7 10 8 7 7 7 10 15 16 16 17 15 14 15 14 12 11 13 12 11 9 5 10 13 13 12 10 5 4 6
14 13 11 11 10 9 9 7 9 8 11 8 11 10 8 8 10 9 11 13 15 16 13 14 13 13 14 14 14 12 12 11 12 9 4 6 9 10 10 10 7 5 4
15 14 13 11 8 10 6 7 9 9 10 12 12 12 14 9 5 10 11 13 12 11 9 8 9 8 8 10 11 9 8 10 12 14 14 19 16 13 12 11 10 9 12
18 17 15 14 6 10 7 6 6 12 13 15 13 12 13 13 10 9 7 8 9 10 11 11 7 6 5 7 6 10 10 12 13 10 11 17 23 23 20 17 15 13 13
18 18 16 13 11 11 10 8 9 12 14 11 11 14 12 11 12 11 7 5 7 11 11 10 8 8 4 6 5 7 9 12 12 13 15 13 16 23 23 21 22 21 16
18 19 16 12 12 10 9 6 9 13 12 12 13 13 12 12 16 12 6 4 5 11 9 4 3 4 4 4 4 4 4 9 11 10 13 13 13 14 18 19 19 20 21
17 16 13 13 11 9 8 7 9 13 11 12 15 12 11 12 16 13 6 5 11 9 6 3 3 3 3 4 5 4 5 4 4 12 11 15 15 13 14 16 16 14 16
18 16 15 12 9 8 6 5 5 5 6 12 11 11 11 11 15 13 8 8 12 4 4 3 4 4 3 4 3 4 3 3 5 4 5 11 14 14 13 12 11 11 11
19 18 17 15 11 8 4 4 4 4 5 4 8 12 10 11 13 11 8 8 10 5 4 5 3 4 4 5 3 4 4 5 6 5 7 8 8 9 10 8 7 9 14
20 19 17 17 15 9 5 3 3 4 3 4 7 10 12 11 13 12 8 5 6 5 6 5 5 2 3 5 2 1 3 4 4 6 5 5 6 9 10 18 17 17 17
20 19 18 16 15 10 8 4 4 5 4 3 3 4 6 13 13 13 12 8 6 4 4 5 4 5 3 4 7 3 3 1 2 2 6 7 6 4 10 14 16 17 17
18 17 18 17 15 10 9 9 12 7 6 3 3 3 4 11 12 13 12 12 8 6 6 4 4 3 3 4 3 4 4 1 1 3 3 5 5 6 5 8 11 13 15
19 18 17 16 14 8 10 14 9 6 3 5 6 7 6 6 11 12 13 11 7 6 5 6 5 6 4 3 3 2 3 3 4 3 2 4 4 4 4 4 10 13 15
15 15 15 14 10 10 10 11 9 8 9 9 8 6 5 4 4 9 12 11 10 8 5 4 5 6 5 5 4 5 3 2 2 3 2 2 3 3 2 4 7 10 13
Wind_Direction
133 144 126 119 115 115 118 128 131 134 128 120 113 110 105 103 100 98 98 98 96 92 84 77 71 62 55 51 47 47 47 51 58 65 88 101 102 104 97 98 90 111 107
129 136 123 118 116 116 118 126 133 135 129 127 123 119 117 117 115 114 111 110 106 103 94 84 78 73 62 55 56 50 37 41 56 53 78 104 112 110 113 100 115 124 123
127 132 120 119 117 114 116 118 124 127 127 128 130 131 128 128 125 121 118 115 116 111 101 95 82 77 61 41 33 34 15 2 40 19 344 344 145 135 124 111 125 132 133
130 124 122 122 121 119 119 123 126 128 130 133 135 134 133 133 128 126 126 117 105 98 99 97 84 77 56 41 18 4 353 339 1 350 309 272 235 163 154 145 138 140 143
121 122 129 130 130 124 123 124 126 127 135 130 135 135 135 138 132 131 131 122 114 115 112 102 84 100 49 17 360 344 332 329 334 328 298 264 235 189 170 169 154 153 154
117 120 134 134 132 128 127 127 128 130 138 133 140 135 135 137 132 134 133 125 115 107 87 46 37 81 53 338 318 314 313 314 319 320 316 331 199 193 181 170 168 171 176
110 115 124 133 131 129 128 128 127 136 136 133 136 135 136 132 129 127 121 104 93 77 71 49 19 20 346 303 292 295 299 304 312 309 308 321 202 189 174 175 178 178 186
117 114 119 125 128 127 126 126 128 129 128 128 130 126 120 114 107 96 84 81 81 68 49 31 2 333 303 292 293 291 287 292 301 310 313 326 274 196 175 183 183 179 186
118 116 115 126 117 109 120 123 125 123 118 116 116 116 113 109 103 91 84 74 73 66 58 47 33 1 325 299 288 286 284 281 281 286 300 303 278 216 203 192 186 186 197
123 119 112 123 114 107 111 128 132 130 130 116 113 115 116 114 107 97 85 75 66 56 40 24 6 339 332 328 312 291 283 295 292 286 278 277 289 243 221 204 195 190 200
123 127 133 127 116 111 116 127 129 125 125 126 124 130 132 132 116 103 99 86 67 47 6 353 336 339 349 351 357 13 318 298 287 270 267 304 297 269 244 219 206 198 203
140 141 142 127 126 140 135 136 130 128 132 135 136 146 133 124 131 126 116 104 72 34 40 17 37 34 20 14 8 18 18 351 358 27 27 14 18 13 346 298 229 225 228
142 134 137 139 145 146 150 161 148 143 118 85 111 148 145 119 94 109 80 65 63 45 37 28 30 25 16 8 12 14 7 4 5 2 41 37 33 35 34 32 16 9 274
149 141 143 149 159 148 160 151 136 117 98 80 67 56 112 97 85 83 73 66 61 49 37 33 24 18 12 7 2 355 351 355 350 353 4 15 53 54 31 22 22 335 271
153 150 151 162 163 162 143 133 124 114 110 102 79 70 97 85 90 79 80 75 71 59 46 32 21 11 3 360 359 360 352 344 337 332 343 57 56 56 50 31 8 358 355
154 155 156 170 160 129 130 110 109 107 106 98 82 80 87 86 99 88 77 70 59 57 47 35 25 15 6 7 355 4 349 352 342 329 66 68 65 56 51 52 43 40 38
158 156 158 147 132 122 123 124 120 116 105 98 92 85 88 82 97 93 83 64 43 67 54 43 28 28 11 358 358 344 341 334 325 324 108 96 71 64 62 53 48 42 39
140 142 141 130 124 121 119 120 119 122 119 119 108 94 87 80 99 90 82 60 72 77 59 47 29 7 18 17 342 325 320 319 310 54 91 92 93 85 74 66 54 49 42
141 132 121 120 123 121 119 120 121 127 127 128 116 107 97 93 103 97 92 54 79 69 49 28 9 33 34 349 318 321 322 319 11 100 97 97 102 101 97 84 75 59 49
140 133 130 128 122 111 107 115 99 111 109 119 119 119 113 99 121 116 102 89 84 75 42 26 26 11 27 333 330 330 304 350 74 105 119 116 103 95 95 104 100 88 71
141 136 140 131 127 124 122 128 127 132 119 103 107 116 109 97 103 107 89 77 83 76 68 34 17 40 10 347 26 348 36 74 66 67 64 73 80 93 92 93 103 80 76
144 139 138 138 136 137 138 134 121 131 109 115 107 103 99 98 91 90 93 84 102 93 68 46 33 28 11 15 61 91 26 352 21 57 45 34 56 81 70 61 66 57 77
144 143 140 140 143 144 157 133 92 96 92 92 105 99 100 100 99 97 89 89 83 81 79 64 39 51 44 12 37 96 67 177 322 354 43 43 26 38 87 83 76 71 86
144 138 142 149 154 158 147 134 148 150 148 169 119 110 93 102 95 94 94 89 87 78 68 55 42 52 84 45 4 21 51 143 142 334 4 24 5 32 38 84 88 80 97
145 146 148 151 160 142 145 146 146 149 145 123 128 119 115 93 93 92 90 89 86 83 75 73 52 49 62 75 53 14 22 36 35 70 338 347 343 41 39 56 75 67 73
135 140 147 149 153 139 142 153 158 147 136 137 141 134 122 108 106 101 94 85 87 84 90 96 79 64 70 63 51 37 53 76 24 51 17 345 318 324 49 46 56 62 65